Cloud_Cover
1 0 0 9 12 79 79 100 100 100 100 70 0 1 85 100 100 100 100 100 100 100 100 100 100 100 100 100 100 100 100 100 100 100 100 100 100 93 96 99 100 100 100 100
58 48 0 0 79 100 100 100 96 100 100 100 25 2 5 99 80 100 100 100 99 100 93 88 100 100 100 100 100 100 100 100 100 100 98 100 100 70 81 100 100 100 100 100
89 3 3 2 0 100 100 100 12 68 100 100 100 31 5 40 5 8 100 100 76 77 95 100 100 100 100 100 100 100 100 100 100 100 100 100 100 100 100 100 100 100 100 100
86 4 3 5 0 44 100 49 53 79 100 99 100 67 100 78 49 40 18 58 100 100 99 100 100 100 100 100 100 100 100 100 100 100 100 100 100 100 100 100 75 72 100 100
6 5 11 98 12 0 70 7 100 100 100 100 100 100 5 100 100 97 78 100 100 100 100 100 100 100 100 100 100 100 100 100 100 100 100 100 100 100 100 100 74 48 89 100
19 81 93 13 4 4 0 100 100 98 100 100 69 44 1 3 41 100 100 100 100 100 100 100 100 100 100 100 100 100 100 100 100 100 100 100 100 100 100 100 100 70 30 55
97 99 85 99 100 39 41 96 100 100 100 85 0 90 10 0 4 38 100 100 100 100 100 100 100 100 100 100 100 100 100 100 100 100 100 100 100 100 100 100 100 100 63 77
100 83 95 85 93 95 92 99 96 100 100 99 6 100 41 0 0 3 11 99 100 100 100 100 100 100 100 100 100 100 100 100 100 100 100 100 100 100 100 100 100 100 100 100
100 70 94 100 100 61 100 97 100 100 100 100 100 49 0 0 0 0 6 96 100 100 100 100 100 100 100 100 100 100 100 100 100 100 100 100 100 100 100 100 100 100 100 100
95 100 100 99 100 100 100 58 100 100 96 100 76 25 0 2 0 0 0 3 40 100 100 100 100 100 100 100 100 100 100 100 100 100 100 100 100 100 100 100 100 100 100 100
98 100 100 100 100 100 100 100 100 100 99 99 100 55 11 0 4 2 2 2 5 5 99 100 100 100 100 100 100 100 100 100 100 100 100 100 100 100 100 100 100 100 100 100
100 100 93 100 100 100 100 100 100 100 100 100 100 100 93 91 98 100 97 5 5 5 25 100 100 100 100 100 100 100 100 100 100 100 100 100 100 100 100 100 100 100 100 100
100 99 92 100 100 100 100 100 100 100 100 100 100 30 100 100 100 100 100 100 48 25 22 100 100 100 100 100 100 100 100 100 100 100 100 100 100 100 100 100 100 100 100 100
100 100 100 100 100 100 100 100 99 71 100 100 100 98 100 100 71 99 100 100 100 98 92 100 100 100 100 100 100 100 100 100 100 100 100 100 100 100 100 100 100 100 100 100
100 100 100 100 100 100 100 100 100 100 100 100 90 99 100 100 100 100 96 100 74 61 74 96 100 100 100 100 100 100 100 100 100 100 100 100 100 100 100 100 100 100 100 100
100 100 100 100 100 100 100 100 100 99 100 100 100 100 100 100 98 98 77 100 100 100 94 83 79 89 100 96 70 93 100 100 100 100 100 100 100 100 100 100 100 100 100 100
100 100 100 100 100 100 100 100 100 100 100 100 89 100 98 92 64 93 85 96 100 100 99 92 86 88 100 100 100 100 97 100 100 100 100 100 100 100 100 100 100 100 100 100
100 100 100 100 100 100 100 100 100 100 100 100 100 100 100 100 100 100 100 100 92 99 100 100 95 86 100 100 100 100 100 100 100 100 100 100 100 100 100 100 100 100 100 100
100 100 100 100 100 100 100 100 100 100 100 100 100 100 98 100 100 100 100 100 100 100 100 97 100 100 100 100 100 100 100 100 100 100 100 100 100 100 100 100 100 100 100 100
100 100 100 100 100 100 100 100 100 100 100 100 100 100 100 100 100 100 100 100 100 100 100 98 100 100 100 100 100 100 100 100 100 100 100 100 100 100 100 100 100 100 100 100
100 100 100 100 100 100 100 100 100 100 98 100 100 100 100 100 100 100 100 100 100 100 100 100 100 100 100 100 99 100 100 100 100 100 100 100 100 100 100 100 100 100 100 100
100 100 100 100 100 95 89 81 100 100 100 100 100 100 100 100 100 100 100 100 100 100 100 100 100 100 100 100 100 100 100 100 100 100 100 100 100 100 100 100 100 100 100 100
100 100 100 100 100 100 100 100 100 100 100 100 100 100 100 100 100 100 100 100 100 100 100 100 100 100 100 100 100 100 100 100 100 100 100 100 100 100 100 100 100 100 100 100
100 100 100 100 100 100 100 98 100 99 100 100 100 100 100 95 99 100 100 100 100 73 100 100 100 100 100 100 100 100 100 100 100 100 100 100 100 100 100 100 100 100 100 100
100 100 100 100 100 100 100 100 100 100 100 100 100 100 100 40 23 52 30 79 93 16 80 100 99 100 100 100 100 100 100 100 100 100 100 100 100 100 100 100 100 100 100 100
100 100 99 100 100 100 100 100 100 100 100 100 65 69 66 69 40 17 38 51 56 60 81 100 100 100 100 100 100 100 100 100 100 100 100 100 98 100 100 100 100 100 100 100